Regional Weather Roundup
Issued by NWS

Home | Current Version | Previous Version | Text Only | Print | Product List | Glossary Off
Versions: 1 2 3 4 5 6 7 8 9 10 11 12 13 14 15 16 17 18 19 20 21 22 23 24 25 26 27 28 29 30 31 32 33 34 35 36 37 38 39 40 41 42 43 44 45 46 47 48 49 50

130
ASUS45 KTFX 171510
RWRMT
MONTANA REGIONAL WEATHER ROUNDUP
NATIONAL WEATHER SERVICE GREAT FALLS MT
800 AM MST SUN DEC 17 2017

NOTE: "FAIR" INDICATES FEW OR NO CLOUDS BELOW 12000 FEET WITH NO
SIGNIFICANT WEATHER AND/OR OBSTRUCTIONS TO VISIBILITY.

MTZ001>007-043-171600-
WEST OF THE DIVIDE

CITY           SKY/WX    TMP DP  RH WIND       PRES   REMARKS
KALISPELL      CLOUDY    27  23  85 S12       30.09F WCI  17
MISSOULA       CLOUDY    18  15  88 SW3       30.15F
BUTTE          CLOUDY     5   2  87 CALM      30.02F
MULLAN PASS    LGT SNOW  21  17  84 VRB7      30.00R FOG     WCI  12
ANACONDA         N/A     16   9  73 N6        30.05R WCI   7
DEER LODGE       N/A     16  12  86 CALM      30.07F
EUREKA           N/A     30  19  64 MISG      30.07S
HAMILTON         N/A     25  12  58 S16       30.13S WCI  12
LIBBY            N/A     25  21  86 CALM      30.09S
RONAN            N/A     21  17  84 SW2       30.13F
$$

MTZ008-052>055-171600-
SOUTHWEST MONTANA

CITY           SKY/WX    TMP DP  RH WIND       PRES   REMARKS
BOZEMAN        FAIR       3   0  87 N5        30.06R
DILLON         FAIR      14   5  67 W10       30.04S WCI   1
W YELLOWSTONE  CLOUDY     5   3  92 CALM      30.06S
ENNIS          CLOUDY    14   5  67 S15       30.10R WCI  -1
THREE FORKS      N/A     -2  -7  79 CALM      30.03S
$$

MTZ009-010-012-014-046-048-049-054-171600-
EAST SLOPES AND CENTRAL MONTANA

CITY           SKY/WX    TMP DP  RH WIND       PRES   REMARKS
CUT BANK       FAIR      29  18  63 SW25G32   29.72S WCI  14
GREAT FALLS    FAIR      29  13  51 SW25G37   29.79F WCI  14
MALMSTROM AFB  MOCLDY    29  17  60 SW23G41   29.81F WCI  16
HELENA         CLOUDY    30  13  49 W17G30    30.00F WCI  18
BOWMANS CRNR   FAIR      24  13  63 S28       29.81F WCI   7
CHOTEAU          N/A     36  16  44 W14G24    29.76F WCI  27
FAIRFIELD      MOCLDY    33  14  47 SW28G36   29.76S WCI  19
POWER          FAIR      28  16  61 SW21G28   29.76F WCI  14
RAYNESFORD     MOCLDY    30  15  55 SW26G35   29.80S WCI  15
ULM            MOCLDY    30  16  56 SW18      29.83F WCI  18
$$

MTZ011-013-016-021-045-047-050-051-171600-
NORTH CENTRAL MONTANA

CITY           SKY/WX    TMP DP  RH WIND       PRES   REMARKS
HAVRE          FAIR      26  18  71 SW22      29.75F WCI  12
LEWISTOWN      FAIR      24  11  57 SW13      29.80S WCI  12
N BAR RANCH    FAIR      16   5  62 W6        29.81F WCI   7
CHINOOK          N/A     30  18  59 CALM      29.77F
DENTON         FAIR      18  11  74 MISG      29.76S
GEYSER         FAIR      28  16  59 W33G40    29.75F WCI  12
GRASS RANGE    MOCLDY    22  11  61 CALM      29.77F
STANFORD       FAIR      17  10  76 S3        29.77S
WINIFRED       FAIR      25  13  60 W10       29.78S WCI  15
$$

MTZ017>020-022>027-061-062-171600-
NORTHEAST MONTANA

CITY           SKY/WX    TMP DP  RH WIND       PRES   REMARKS
GLASGOW        FAIR      19  17  92 S9        29.82F WCI   8
GLENDIVE       FAIR      19  16  88 S9        29.92F WCI   8
JORDAN           N/A     23  20  88 S12       29.84F WCI  12
SIDNEY         FAIR      16  13  88 S6        29.93F WCI   7
WOLF POINT     FAIR       9   5  84 CALM      29.89F
MALTA          CLEAR     18  16  93 W6        29.82S WCI   9
PLENTYWOOD       N/A     16  12  86 CALM      29.86F
POPLAR           N/A     10   5  79 N5        29.90F
$$

MTZ028>42-056>058-171600-
SOUTHCENTRAL AND SOUTHEAST MONTANA

CITY           SKY/WX    TMP DP  RH WIND       PRES   REMARKS
BAKER          MOCLDY    18  16  92 CALM      29.94F
BILLINGS       FAIR      21  19  92 W12       29.89F WCI   9
LIVINGSTON     MIX PCPN  22  14  71 W32G41    29.94R WCI   3
MILES CITY     FAIR      21  20  96 S10       29.92F WCI  10
BIG TIMBER     HAZE      23  16  74 W44G55    29.84F VSB 1/4 WCI   3
FORSYTH          N/A     27  25  93 S8        29.90F WCI  18
HARLOWTON      FAIR      22  14  72 NW26      29.83S WCI   4
LAUREL           N/A     23  21  93 SW16      29.91S WCI  10
$$

REGIONAL REPORTS...DAKOTAS

CITY           SKY/WX    TMP DP  RH WIND       PRES   REMARKS
WILLISTON      FAIR      17  15  92 S5        29.93F
MINOT          FAIR      22  16  78 SW13      29.94S WCI  10
DICKINSON      FAIR      19  17  92 S12       29.93F WCI   7
BEACH          FAIR      19  19 100 S8        29.95F WCI   9
CROSBY         FAIR      18  14  86 S15       29.89F WCI   3
TIOGA          FAIR      18  18 100 S7        29.92F WCI   8
WATFORD CITY   FAIR      16  14  93 CALM      29.93
BISMARCK       FAIR      18  16  92 CALM      30.02F
GRAND FORKS    FAIR      11   9  92 S10       30.00S WCI  -3
FARGO          FAIR      21  21 100 S6        30.05S FOG     WCI  13
BUFFALO SD       N/A     25  22  88 SE6       29.89F WCI  18
RAPID CITY     CLOUDY    29  25  85 S6        30.01S WCI  23
$$

REGIONAL REPORTS...WYOMING/IDAHO/WASHINGTON

CITY           SKY/WX    TMP DP  RH WIND       PRES   REMARKS
GILLETTE       MOCLDY    26  23  88 S13       29.90F WCI  15
SHERIDAN       FOG       21  19  92 W5        29.91F VSB 1/4
BUFFALO WY     CLOUDY    20  14  77 CALM      29.86F
CODY           FLURRIES  29  11  47 W21G37    29.89S WCI  16
YELLOWSTONE LA   N/A      0  -4  83 CALM      30.04S
IDAHO FALLS    FOG       23  22  96 SW6       30.18S VSB 3/4 WCI  16
SALMON         CLOUDY    11   8  88 SE3       30.23F
BOISE          FAIR      22  17  81 SE7       30.24S WCI  13
SPOKANE        LGT SNOW  29  28  96 S10       30.13F FOG     WCI  20
$$

REGIONAL REPORTS...ALBERTA

CITY           SKY/WX    TMP DP  RH WIND       PRES   REMARKS
EDMONTON       CLEAR     30  16  55 SW9       29.47F WCI  22
CALGARY        MOCLDY    39  14  35 W10       29.59S
LETHBRIDGE     MOCLDY    36  19  51 W33G47    29.67S WCI  22
MEDICINE HAT   MOCLDY    28  21  74 SW14      29.65F WCI  17
$$

REGIONAL REPORTS...SASKATCHEWAN

CITY           SKY/WX    TMP DP  RH WIND       PRES   REMARKS
SWIFT CURRENT  PTCLDY    23  14  68 SW20      29.63F WCI   8
REGINA         MOCLDY    19  14  79 S12       29.76F WCI   7
SASKATOON      PTCLDY    21  16  79 S10       29.63F WCI  10
$$




USA.gov is the U.S. government's official web portal to all federal, state and local government web resources and services.